Regional Weather Roundup
Issued by NWS

Home | Current Version | Previous Version | Text Only | Print | Product List | Glossary Off
Versions: 1 2 3 4 5 6 7 8 9 10 11 12 13 14 15 16 17 18 19 20 21 22 23 24 25 26 27

000
ASUS45 KSLC 050610
RWRUT

UTAH REGIONAL WEATHER ROUNDUP
NATIONAL WEATHER SERVICE SALT LAKE CITY UT
1100 PM MST SUN DEC 04 2016

UTZ001>011-023>025-050700-

NORTHERN UTAH

CITY           SKY/WX    TMP DP  RH WIND       PRES   REMARKS
BRIGHAM CITY     N/A     42  21  43 N5        29.79S
HILL AFB       CLOUDY    40  21  46 S15       29.77F WCI  32
LOGAN          CLOUDY   N/A N/A N/A NW13      29.78R
OGDEN          CLOUDY    41  22  46 S9        29.77F
SALT LAKE CITY CLOUDY    44  22  41 SE8       29.77F
TOOELE VALLEY  CLOUDY    43  30  61 SE7       29.78F
WENDOVER       CLOUDY    36  19  51 CALM      29.80S
HEBER CITY     CLOUDY    32  27  80 SE3       29.80F
WEST JORDAN    CLOUDY    43  27  52 SE9       29.79F

$$

UTZ011>015-024>027-050700-

CENTRAL/NORTHEAST UTAH

CITY           SKY/WX    TMP DP  RH WIND       PRES   REMARKS
PROVO AIRPORT  CLOUDY    33  27  78 SE6       29.85F WCI  28
MOAB/CANYONLAN CLEAR     23  15  71 W3        29.95F
DELTA          CLOUDY    36  19  51 S10       29.86F WCI  28
PRICE          PTCLDY    22  13  68 NE8       29.94S WCI  12
ROOSEVELT      CLOUDY    21  16  79 W5        29.89F WCI  15
VERNAL         CLOUDY    21  14  74 W6        29.86F WCI  13

$$

UTZ013>016-019>022-027-050700-

SOUTHERN UTAH

CITY           SKY/WX    TMP DP  RH WIND       PRES   REMARKS
BRYCE CANYON   CLEAR     11   7  84 SW3       30.00F
CEDAR CITY     PTCLDY    40  13  33 S10       29.94F WCI  33
MILFORD        MOCLDY    42  13  30 S20       29.91F
ST GEORGE      CLOUDY    39  18  41 S3        30.01S
HANKSVILLE     PTCLDY    28  16  59 CALM      29.98F
BLANDING       CLEAR     24  13  62 N6        30.10S WCI  17

$$

REGIONAL REPORTS     COLORADO/ARIZONA

CITY           SKY/WX    TMP DP  RH WIND       PRES   REMARKS
CRAIG, CO      CLOUDY    28  17  63 SE3       29.84F
GRAND JUNCTION CLOUDY    27  18  69 CALM      29.95F
RIFLE, CO      CLOUDY    28  20  71 W3        29.94F
MONTROSE, CO   CLOUDY    25  17  72 SE6       29.98F WCI  18
CORTEZ, CO     CLOUDY    20  17  88 NE3       30.04F
COLORADO CITY    N/A     27  21  80 SE3       30.03F
PAGE, AZ       CLEAR     34  14  43 CALM      29.99F
GRAND CANYON   CLEAR     22  18  85 E3        30.06F
KINGMAN, AZ    PTCLDY    40  14  34 SE6       29.98F
FLAGSTAFF, AZ  CLEAR     28  15  58 SW3       30.08F

$$

REGIONAL REPORTS    NEVADA/IDAHO/WYOMING

CITY           SKY/WX    TMP DP  RH WIND       PRES   REMARKS
LAS VEGAS, NV  CLOUDY    48  16  27 W3        29.96F
ELY, NY        CLOUDY    28  20  71 CALM      29.93F
ELKO, NV       CLOUDY    39  24  55 SW8       29.86S WCI  33
POCATELLO, ID  FLURRIES  34  32  92 SW28G35   29.76R WCI  21
BURLEY, ID     LGT SNOW  32  31  96 W20G28    29.82R FOG     WCI  20
FORT BRIDGER,  CLOUDY    34  28  77 W22G31    29.78F WCI  22
EVANSTON, WY   LGT SNOW  32  25  75 SW26G35   29.77F WCI  18
ROCK SPRINGS,  CLOUDY    32  23  69 W25       29.72F WCI  19
KEMMERER, WY   LGT SNOW  30  28  93 SW22G36   29.73F WCI  17

$$




USA.gov is the U.S. government's official web portal to all federal, state and local government web resources and services.